Missoula, MT

10:00 PM MDT on July 21, 2017 (GMT -0600)
Missoula International

Weather History for KMSO - April, 2012

Change the Weather History Date:

Wednesday, April 18, 2012

  Actual Average Record
Temperature  
Mean Temperature 48 °F 46 °F  
Max Temperature 56 °F 59 °F 88 °F (1936)
Min Temperature 39 °F 33 °F 18 °F (1977)
Degree Days  
Heating Degree Days 17 19  
Month to date heating degree days 376 371  
Since 1 July heating degree days 6289 6554  
Cooling Degree Days 0 0  
Month to date cooling degree days 0 0  
Year to date cooling degree days 0 0  
Moisture  
Dew Point 34 °F    
Average Humidity 62    
Maximum Humidity 86    
Minimum Humidity 38    
Precipitation  
Precipitation 0.05 in 0.04 in 1.39 in (1912)
Month to date precipitation 0.28 0.72  
Year to date precipitation 3.91 3.27  
Snow  
Snow 0.00 in - - ()
Month to date snowfall T  
Year to date snowfall 28.9  
Since 1 July snowfall 39.8  
Snow Depth 0.00 in    
Sea Level Pressure  
Sea Level Pressure 29.97 in    
Wind  
Wind Speed 8 mph (NW)    
Max Wind Speed 24 mph    
Max Gust Speed 31 mph    
Visibility 10 miles    
Events Rain    
T = Trace of Precipitation, MM = Missing Value Source: NWS Daily Summary

Daily Weather History Graph

Daily Weather History Graph

Search for Another Location

Airport or City:

Trip Planner

Search our weather history database for the weather conditions in past years. The results will help you decide how hot, cold, wet, or windy it might be!

Date:

Astronomy

Apr. 18, 2012 Rise Set
Actual Time 6:42 AM MDT 8:29 PM MDT
Civil Twilight 6:09 AM MDT 9:02 PM MDT
Nautical Twilight 5:30 AM MDT 9:41 PM MDT
Astronomical Twilight 4:47 AM MDT 10:25 PM MDT
Moon 5:17 AM MDT (4/18) 6:18 PM MDT (4/18)
Length of Visible Light 14h 52m
Length of Day
13h 47m
Waning Crescent, 6% of the Moon is Illuminated
Apr 18
Waning Crescent
Apr 21
New
Apr 29
First Quarter
May 5
Full
May 12
Last Quarter

Hourly Weather History & Observations

Time (MDT) Temp. Windchill Dew Point Humidity Pressure Visibility Wind Dir Wind Speed Gust Speed Precip Events Conditions
12:53 AM 45.0 °F 43.5 °F 30.9 °F 58% 29.95 in 10.0 mi NNW 3.5 mph - N/A   Overcast
1:53 AM 46.9 °F - 30.0 °F 52% 29.92 in 10.0 mi NNW 5.8 mph - N/A   Overcast
2:53 AM 46.0 °F 41.9 °F 34.0 °F 63% 29.90 in 10.0 mi WNW 8.1 mph - N/A   Overcast
3:53 AM 43.0 °F 38.2 °F 37.0 °F 80% 29.91 in 10.0 mi WNW 8.1 mph - 0.00 in Rain Light Rain
4:15 AM 42.8 °F 37.5 °F 37.4 °F 81% 29.91 in 10.0 mi WNW 9.2 mph - 0.00 in Rain Light Rain
4:53 AM 41.0 °F 35.8 °F 37.9 °F 89% 29.94 in 10.0 mi NW 8.1 mph - 0.02 in Rain Light Rain
5:53 AM 41.0 °F 39.0 °F 37.4 °F 87% 29.92 in 10.0 mi WNW 3.5 mph - N/A   Overcast
6:53 AM 41.0 °F 36.4 °F 37.9 °F 89% 29.95 in 10.0 mi NW 6.9 mph - 0.01 in   Overcast
7:02 AM 41.0 °F 37.1 °F 37.4 °F 87% 29.94 in 10.0 mi NW 5.8 mph - N/A   Overcast
7:33 AM 41.0 °F 37.1 °F 37.4 °F 87% 29.95 in 10.0 mi NNW 5.8 mph - N/A   Overcast
7:43 AM 41.0 °F 36.4 °F 37.4 °F 87% 29.96 in 10.0 mi NW 6.9 mph - N/A   Overcast
7:50 AM 41.0 °F 36.4 °F 37.4 °F 87% 29.96 in 10.0 mi NW 6.9 mph - N/A   Overcast
7:53 AM 41.0 °F 35.8 °F 37.9 °F 89% 29.98 in 10.0 mi NNW 8.1 mph - N/A   Overcast
8:53 AM 42.1 °F 36.6 °F 37.0 °F 82% 30.00 in 10.0 mi NNW 9.2 mph - N/A   Overcast
9:53 AM 46.0 °F 42.5 °F 36.0 °F 68% 30.01 in 10.0 mi NNW 6.9 mph - N/A   Overcast
10:46 AM 46.4 °F 43.5 °F 33.8 °F 62% 29.99 in 10.0 mi North 5.8 mph - N/A   Overcast
10:53 AM 46.9 °F - 34.0 °F 61% 30.01 in 10.0 mi NW 5.8 mph - 0.00 in Rain Light Rain
11:53 AM 46.9 °F - 36.0 °F 66% 30.02 in 10.0 mi NNW 12.7 mph - 0.00 in Rain Light Rain
12:53 PM 50.0 °F - 33.1 °F 52% 30.01 in 10.0 mi NNW 8.1 mph - 0.00 in   Overcast
1:53 PM 52.0 °F - 30.9 °F 45% 29.98 in 10.0 mi West 9.2 mph - N/A   Overcast
2:33 PM 50.0 °F - 33.8 °F 54% 29.97 in 10.0 mi West 4.6 mph - 0.00 in Rain Light Rain
2:53 PM 55.0 °F - 32.0 °F 42% 29.98 in 10.0 mi WNW 15.0 mph 19.6 mph 0.00 in   Mostly Cloudy
3:53 PM 55.0 °F - 30.9 °F 40% 29.97 in 10.0 mi WNW 5.8 mph - N/A   Mostly Cloudy
4:53 PM 54.0 °F - 30.0 °F 40% 29.95 in 10.0 mi NNW 8.1 mph - N/A   Scattered Clouds
5:53 PM 54.0 °F - 30.0 °F 40% 29.95 in 10.0 mi WNW 6.9 mph - N/A   Mostly Cloudy
6:53 PM 53.1 °F - 28.9 °F 40% 29.96 in 10.0 mi WSW 18.4 mph - N/A   Overcast
7:45 PM 46.4 °F 38.5 °F 33.8 °F 62% 29.97 in 10.0 mi NW 21.9 mph 31.1 mph N/A   Overcast
7:53 PM 46.0 °F 38.5 °F 34.0 °F 63% 30.01 in 10.0 mi WNW 19.6 mph 28.8 mph N/A   Overcast
8:53 PM 43.0 °F 41.3 °F 34.0 °F 71% 30.03 in 10.0 mi NW 3.5 mph - N/A   Partly Cloudy
9:53 PM 39.9 °F 37.8 °F 33.1 °F 77% 30.05 in 10.0 mi SE 3.5 mph - N/A   Mostly Cloudy
10:53 PM 42.1 °F - 33.1 °F 70% 30.03 in 10.0 mi Calm Calm - N/A   Scattered Clouds
11:53 PM 39.0 °F 35.7 °F 33.1 °F 79% 30.04 in 10.0 mi WSW 4.6 mph - N/A   Overcast